TimeEST,TemperatureF,Dew PointF,Humidity,Sea Level PressureIn,VisibilityMPH,Wind Direction,Wind SpeedMPH,Gust SpeedMPH,PrecipitationIn,Events,Conditions,WindDirDegrees,DateUTC
12:54 AM,28.9,24.1,82,29.96,10.0,Calm,Calm,-,N/A,,Overcast,0,2013-02-15 05:54:00
1:54 AM,30.9,25.0,79,29.96,10.0,Calm,Calm,-,N/A,,Overcast,0,2013-02-15 06:54:00
2:54 AM,32.0,25.0,75,29.95,10.0,Calm,Calm,-,N/A,,Overcast,0,2013-02-15 07:54:00
3:54 AM,35.1,25.0,67,29.94,10.0,South,5.8,-,N/A,,Overcast,190,2013-02-15 08:54:00
4:54 AM,34.0,24.1,67,29.95,10.0,SSW,5.8,-,N/A,,Clear,210,2013-02-15 09:54:00
5:54 AM,32.0,24.1,73,29.95,10.0,SSW,5.8,-,N/A,,Clear,200,2013-02-15 10:54:00
6:54 AM,30.0,23.0,75,29.95,9.0,SW,5.8,-,N/A,,Clear,230,2013-02-15 11:54:00
7:54 AM,33.1,25.0,72,29.96,8.0,SSW,5.8,-,N/A,,Clear,200,2013-02-15 12:54:00
8:54 AM,36.0,27.0,70,29.99,9.0,SW,8.1,-,N/A,,Clear,220,2013-02-15 13:54:00
9:54 AM,37.9,28.0,68,29.98,9.0,SSW,9.2,-,N/A,,Partly Cloudy,210,2013-02-15 14:54:00
10:54 AM,41.0,28.9,62,29.96,10.0,SSW,6.9,-,N/A,,Clear,200,2013-02-15 15:54:00
11:54 AM,44.1,28.9,55,29.94,10.0,South,8.1,-,N/A,,Clear,190,2013-02-15 16:54:00
12:54 PM,46.9,28.9,50,29.91,10.0,SSW,11.5,-,N/A,,Clear,210,2013-02-15 17:54:00
1:54 PM,48.9,28.9,46,29.89,10.0,SSW,12.7,-,N/A,,Clear,200,2013-02-15 18:54:00
2:54 PM,50.0,28.9,44,29.88,10.0,SSW,12.7,-,N/A,,Clear,200,2013-02-15 19:54:00
3:54 PM,50.0,28.0,43,29.88,10.0,SSW,11.5,-,N/A,,Partly Cloudy,200,2013-02-15 20:54:00
4:54 PM,48.0,21.9,36,29.91,10.0,WNW,10.4,-,N/A,,Mostly Cloudy,300,2013-02-15 21:54:00
5:54 PM,46.0,21.0,37,29.92,10.0,West,3.5,-,N/A,,Overcast,280,2013-02-15 22:54:00
6:54 PM,42.1,24.1,49,29.93,10.0,Calm,Calm,-,N/A,,Overcast,0,2013-02-15 23:54:00
7:54 PM,39.0,26.1,60,29.92,10.0,Calm,Calm,-,N/A,,Overcast,0,2013-02-16 00:54:00
8:54 PM,42.1,23.0,47,29.91,10.0,NW,6.9,-,N/A,,Overcast,320,2013-02-16 01:54:00
9:54 PM,41.0,24.1,51,29.94,10.0,Calm,Calm,-,N/A,,Overcast,0,2013-02-16 02:54:00
10:54 PM,39.0,28.9,67,29.96,10.0,West,5.8,-,0.00,Rain,Light Rain,270,2013-02-16 03:54:00
11:01 PM,39.2,28.4,65,29.96,10.0,West,6.9,-,0.00,Rain,Light Rain,270,2013-02-16 04:01:00
11:44 PM,35.6,32.0,87,29.97,7.0,North,6.9,-,0.03,Rain,Light Rain,10,2013-02-16 04:44:00
11:54 PM,34.0,30.9,89,29.98,2.0,NNE,5.8,-,0.04,Snow,Light Snow,30,2013-02-16 04:54:00